GW3494 Weather Reports


time (UTC)temp
C
wind
direction
speed
KPH
gust
KPH
rain 1hr
cm
rain 24hr
cm
rain mn
cm
humidity
%
barometer
mb
20260504100217 8 193 8.0 11.3 0.00 0.00 0.00 70 1012.6
20260504090139 7 192 6.4 11.3 0.00 0.00 0.00 67 1013.0
20260504081609 8 176 4.8 9.7 0.00 0.00 0.00 65 1013.4
20260504081105 8 189 8.0 9.7 0.00 0.00 0.00 65 1013.1
20260504080602 8 189 8.0 8.0 0.00 0.00 0.00 63 1013.4
20260504050415 9 182 4.8 8.0 0.00 0.00 0.00 54 1014.3
20260504045912 9 186 6.4 6.4 0.00 0.00 0.00 55 1014.5
20260504045408 9 194 6.4 8.0 0.00 0.00 0.00 53 1014.3
20260504044904 8 180 3.2 8.0 0.00 0.00 0.00 55 1014.2
20260504044402 8 143 3.2 6.4 0.00 0.00 0.00 59 1014.1
20260504043859 8 188 8.0 8.0 0.00 0.00 0.00 55 1014.2
20260504043356 9 168 3.2 8.0 0.00 0.00 0.00 57 1014.2
20260504042853 9 177 3.2 8.0 0.00 0.00 0.00 56 1014.1
20260504042349 9 182 6.4 6.4 0.00 0.00 0.00 55 1014.2
20260504041846 9 189 6.4 6.4 0.00 0.00 0.00 54 1014.3
20260504041342 9 180 8.0 8.0 0.00 0.00 0.00 55 1014.3
20260504040838 9 187 4.8 8.0 0.00 0.00 0.00 52 1014.3
20260504040336 9 182 4.8 8.0 0.00 0.00 0.00 54 1014.3
20260504035831 9 180 4.8 8.0 0.00 0.00 0.00 52 1014.2
20260504035330 9 166 3.2 8.0 0.00 0.00 0.00 54 1014.0
20260504034826 9 180 4.8 6.4 0.00 0.00 0.00 54 1014.1
20260504034324 9 195 0.0 6.4 0.00 0.00 0.00 54 1014.3
20260504033821 9 180 3.2 8.0 0.00 0.00 0.00 52 1014.3
20260504033319 9 180 4.8 6.4 0.00 0.00 0.00 53 1014.4
20260504032815 9 187 4.8 8.0 0.00 0.00 0.00 51 1014.2
20260504032312 9 178 4.8 6.4 0.00 0.00 0.00 52 1014.3
20260504031809 9 172 3.2 8.0 0.00 0.00 0.00 52 1014.4
20260504031307 9 187 3.2 8.0 0.00 0.00 0.00 53 1014.3
20260504030803 9 188 4.8 6.4 0.00 0.00 0.00 52 1014.4
20260504030300 9 182 4.8 6.4 0.00 0.00 0.00 51 1014.5
20260504025756 9 178 4.8 8.0 0.00 0.00 0.00 50 1014.3
20260504025253 9 182 4.8 8.0 0.00 0.00 0.00 51 1014.4
20260504024749 9 174 4.8 6.4 0.00 0.00 0.00 52 1014.6
20260504024246 9 172 3.2 6.4 0.00 0.00 0.00 51 1014.5
20260504023743 9 186 6.4 6.4 0.00 0.00 0.00 51 1014.4
20260504023239 9 180 3.2 8.0 0.00 0.00 0.00 49 1014.6
20260504022735 9 173 3.2 6.4 0.00 0.00 0.00 52 1014.5
20260504022232 10 124 3.2 6.4 0.00 0.00 0.00 51 1014.4
20260504021729 10 180 4.8 4.8 0.00 0.00 0.00 50 1014.5
20260504021226 10 180 4.8 8.0 0.00 0.00 0.00 49 1014.4
20260504020723 10 178 4.8 6.4 0.00 0.00 0.00 51 1014.3
20260504020220 10 187 4.8 4.8 0.00 0.00 0.00 51 1014.3
20260504015716 10 188 4.8 4.8 0.00 0.00 0.00 50 1014.4
20260504015212 10 188 4.8 4.8 0.00 0.00 0.00 50 1014.5
20260504014708 9 180 4.8 4.8 0.00 0.00 0.00 50 1014.6
20260504014205 10 185 4.8 4.8 0.00 0.00 0.00 48 1014.3
20260504013703 10 188 3.2 4.8 0.00 0.00 0.00 50 1014.4
20260504013159 10 201 3.2 4.8 0.00 0.00 0.00 47 1014.4
20260504012656 10 236 4.8 4.8 0.00 0.00 0.00 48 1014.4
20260504012154 10 173 1.6 6.4 0.00 0.00 0.00 46 1014.4
20260504011651 10 156 3.2 3.2 0.00 0.00 0.00 48 1014.5
20260504011147 10 172 0.0 4.8 0.00 0.00 0.00 48 1014.6
20260504010643 10 203 0.0 4.8 0.00 0.00 0.00 48 1014.6
20260504010139 10 173 3.2 4.8 0.00 0.00 0.00 47 1014.4
20260504005637 10 175 0.0 3.2 0.00 0.00 0.00 47 1014.5
20260504005133 10 176 3.2 4.8 0.00 0.00 0.00 47 1014.6
20260504004632 10 194 3.2 3.2 0.00 0.00 0.00 46 1014.3
20260504004128 11 183 3.2 4.8 0.00 0.00 0.00 46 1014.1
20260504003624 11 112 3.2 9.7 0.00 0.00 0.00 46 1014.3
20260504003121 11 203 1.6 4.8 0.00 0.00 0.00 47 1014.1
20260504002618 11 180 3.2 4.8 0.00 0.00 0.00 48 1014.3
20260504002116 11 169 1.6 4.8 0.00 0.00 0.00 45 1014.1
20260504001614 11 176 3.2 9.7 0.00 0.00 0.00 46 1014.1
20260504001109 11 232 4.8 6.4 0.00 0.00 0.00 47 1014.2
20260504000607 11 157 1.6 3.2 0.00 0.00 0.00 47 1014.3
20260504000104 11 160 1.6 3.2 0.00 0.00 0.00 44 1014.5
20260503235602 11 131 0.0 3.2 0.00 0.00 0.00 45 1014.2
20260503235058 11 243 0.0 4.8 0.00 0.00 0.00 44 1014.2
20260503234556 11 355 0.0 8.0 0.00 0.00 0.00 43 1014.2
20260503234054 11 180 1.6 4.8 0.00 0.00 0.00 43 1014.5
20260503233550 11 223 6.4 12.9 0.00 0.00 0.00 41 1014.3
20260503233046 12 206 3.2 11.3 0.00 0.00 0.00 42 1014.4
20260503232544 12 270 3.2 11.3 0.00 0.00 0.00 41 1014.3
20260503232041 12 109 1.6 9.7 0.00 0.00 0.00 42 1014.4
20260503231539 12 261 0.0 8.0 0.00 0.00 0.00 42 1014.4
20260503231035 12 174 1.6 6.4 0.00 0.00 0.00 43 1014.5
20260503230532 12 210 6.4 9.7 0.00 0.00 0.00 40 1014.3
20260503230030 12 249 4.8 11.3 0.00 0.00 0.00 40 1014.3
20260503225526 12 255 6.4 9.7 0.00 0.00 0.00 40 1014.5
20260503225021 12 29 0.0 12.9 0.00 0.00 0.00 40 1014.4
20260503224519 12 151 1.6 6.4 0.00 0.00 0.00 41 1014.5
20260503224017 13 251 0.0 8.0 0.00 0.00 0.00 40 1014.3
20260503223515 13 180 4.8 12.9 0.00 0.00 0.00 40 1014.5
20260503223010 13 306 1.6 9.7 0.00 0.00 0.00 42 1014.5
20260503222508 13 259 4.8 6.4 0.00 0.00 0.00 40 1014.9
20260503222006 13 213 3.2 8.0 0.00 0.00 0.00 40 1014.6
20260503221504 13 208 0.0 8.0 0.00 0.00 0.00 39 1014.5
20260503221001 13 222 4.8 6.4 0.00 0.00 0.00 40 1014.9
20260503220457 13 175 1.6 8.0 0.00 0.00 0.00 40 1014.4
20260503215954 13 172 0.0 19.3 0.00 0.00 0.00 41 1014.9
20260503215451 13 138 4.8 8.0 0.00 0.00 0.00 36 1014.8
20260503214948 13 159 4.8 11.3 0.00 0.00 0.00 39 1014.6
20260503214447 13 239 4.8 20.9 0.00 0.00 0.00 38 1014.5
20260503213943 14 264 4.8 11.3 0.00 0.00 0.00 40 1014.5
20260503213442 15 221 3.2 6.4 0.00 0.00 0.00 39 1014.9
20260503212937 15 206 4.8 12.9 0.00 0.00 0.00 39 1014.5
20260503212435 13 288 4.8 12.9 0.00 0.00 0.00 38 1014.6
20260503211932 13 183 4.8 16.1 0.00 0.00 0.00 38 1014.4
20260503211429 13 137 11.3 11.3 0.00 0.00 0.00 38 1014.4
20260503210924 14 200 1.6 9.7 0.00 0.00 0.00 44 1014.5
20260503210422 14 220 3.2 6.4 0.00 0.00 0.00 37 1014.6
20260503205917 14 135 3.2 11.3 0.00 0.00 0.00 38 1014.6
20260503205414 15 180 3.2 12.9 0.00 0.00 0.00 39 1014.6
20260503204910 14 238 8.0 25.7 0.00 0.00 0.00 39 1015.0
20260503204408 14 147 6.4 11.3 0.00 0.00 0.00 37 1015.1
20260503203905 13 177 3.2 6.4 0.00 0.00 0.00 45 1015.1
20260503203402 13 163 3.2 8.0 0.00 0.00 0.00 43 1015.0
20260503202859 12 191 3.2 9.7 0.00 0.00 0.00 42 1015.0
20260503202357 14 0 0.0 19.3 0.00 0.00 0.00 39 1015.3
20260503201855 14 195 3.2 9.7 0.00 0.00 0.00 40 1015.4
20260503201352 14 213 3.2 6.4 0.00 0.00 0.00 39 1015.3
20260503200849 15 233 8.0 9.7 0.00 0.00 0.00 39 1015.1
20260503200345 15 157 6.4 14.5 0.00 0.00 0.00 39 1015.5
20260503195842 15 355 1.6 9.7 0.00 0.00 0.00 40 1015.6
20260503195339 15 195 3.2 6.4 0.00 0.00 0.00 38 1015.3
20260503194836 14 187 1.6 8.0 0.00 0.00 0.00 37 1015.6
20260503194332 13 123 3.2 8.0 0.00 0.00 0.00 41 1015.8
20260503193829 14 149 4.8 9.7 0.00 0.00 0.00 39 1015.5
20260503193324 15 48 3.2 6.4 0.00 0.00 0.00 36 1015.9
20260503192820 15 227 9.7 14.5 0.00 0.00 0.00 37 1015.8
20260503192316 15 150 4.8 9.7 0.00 0.00 0.00 38 1016.0
20260503191812 14 133 4.8 6.4 0.00 0.00 0.00 41 1016.0
20260503191310 14 195 1.6 8.0 0.00 0.00 0.00 41 1016.1
20260503190806 15 14 0.0 8.0 0.00 0.00 0.00 36 1016.1
20260503190303 14 185 3.2 8.0 0.00 0.00 0.00 41 1016.2
20260503185801 13 251 4.8 27.4 0.00 0.00 0.00 40 1016.5
20260503185256 15 0 0.0 6.4 0.00 0.00 0.00 40 1016.3
20260503184755 14 192 8.0 9.7 0.00 0.00 0.00 40 1016.4
20260503184252 12 45 0.0 9.7 0.00 0.00 0.00 42 1016.3
20260503183748 13 232 11.3 14.5 0.00 0.00 0.00 41 1016.3
20260503183246 14 334 0.0 11.3 0.00 0.00 0.00 37 1016.4
20260503182743 15 125 0.0 12.9 0.00 0.00 0.00 41 1016.5
20260503182242 15 187 8.0 19.3 0.00 0.00 0.00 38 1016.5
20260503181739 15 106 0.0 6.4 0.00 0.00 0.00 36 1016.7
20260503181236 14 270 0.0 4.8 0.00 0.00 0.00 39 1016.7
20260503180732 13 204 8.0 8.0 0.00 0.00 0.00 43 1016.6
20260503180231 13 339 4.8 8.0 0.00 0.00 0.00 41 1016.7
20260503175727 12 293 8.0 9.7 0.00 0.00 0.00 41 1016.7
20260503175225 13 293 4.8 6.4 0.00 0.00 0.00 39 1016.7
20260503174721 12 31 6.4 11.3 0.00 0.00 0.00 40 1016.5
20260503174219 12 337 1.6 8.0 0.00 0.00 0.00 41 1017.2
20260503173714 12 32 1.6 11.3 0.00 0.00 0.00 41 1017.0
20260503173210 13 14 8.0 8.0 0.00 0.00 0.00 41 1017.3
20260503172707 13 262 0.0 8.0 0.00 0.00 0.00 42 1017.3
20260503172204 12 164 3.2 8.0 0.00 0.00 0.00 40 1017.0
20260503171700 12 283 0.0 3.2 0.00 0.00 0.00 39 1017.1
20260503171158 12 243 14.5 19.3 0.00 0.00 0.00 42 1017.2
20260503170654 12 230 3.2 12.9 0.00 0.00 0.00 46 1017.3
20260503170151 12 263 4.8 11.3 0.00 0.00 0.00 47 1017.3
20260503160113 11 130 8.0 9.7 0.00 0.00 0.00 42 1018.2
20260503150542 10 138 4.8 9.7 0.00 0.00 0.00 48 1018.2
20260503130932 6 214 4.8 4.8 0.00 0.00 0.00 70 1018.3
20260503130430 6 0 1.6 8.0 0.00 0.00 0.00 69 1018.1
20260503110823 2 202 4.8 6.4 0.00 0.00 0.00 86 1017.4
20260503110319 2 151 1.6 8.0 0.00 0.00 0.00 85 1017.4